SCP
0 0 0 0 0 0 0 0 0 0 0 0 0 0 0 0 0 0 0 0 0 0 0 0 0 0 0 0 0 0 0 0 0 0 0 0 0 0 0 0 0 0 0
0 0 0 0 0 0 0 0 0 0 0 0 0 0 0 0 0 0 0 0 0 0 0 0 0 0 0 0 0 0 0 0 0 0 0 0 0 0 0 0 0 0 0
0 0 0 0 0 0 0 0 0 0 0 0 0 0 0 0 0 0 0 0 0 0 0 0 0 0 0 0 0 0 0 0 0 0 0 0 0 0 0 0 0 0 0
0 0 0 0 0 0 0 0 0 0 0 0 0 0 0 0 0 0 0 0 0 0 0 0 0 0 0 0 0 0 0 0 0 0 0 0 0 0 0 0 0 0 0
0 0 0 0 0 0 0 0 0 0 0 0 0 0 0 0 0 0 0 0 0 0 0 0 0 0 0 0 0 0 0 0 0 0 0 0 0 0 0 0 0 0 0
0 0 0 0 0 0 0 0 0 0 0 0 0 0 0 0 0 0 0 0 0 0 0 0 0 0 0 0 0 0 0 0 0 0 0 0 0 0 0 0 0 0 0
0 0 0 0 0 0 0 0 0 0 0 0 0 0 0 0 0 0 0 0 0 0 0 0 0 0 0 0 0 0 0 0 0 0 0 0 0 0 0 0 0 0 0
0 0 0 0 0 0 0 0 0 0 0 0 0 0 0 0 0 0 0 0 0 0 0 0 0 0 0 0 0 0 0 0 0 0 0 0 0 0 0 0 0 0 0
0 0 0 0 0 0 0 0 0 0 0 0 0 0 0 0 0 0 0 0 0 0 0 0 0 0 0 0 0 0 0 0 0 0 0 0 0 0 0 0 0 0 0
0 0 0 0 0 0 0 0 0 0 0 0 0 0 0 0 0 0 0 0 0 0 0 0 0 0 0 0 0 0 0 0 0 0 0 0 0 0 0 0 0 0 0
0 0 0 0 0 0 0 0 0 0 0 0 0 0 0 0 0 0 0 0 0 0 0 0 0 0 0 0 0 0 0 0 0 0 0 0 0 0 0 0 0 0 0
0 0 0 0 0 0 0 0 0 0 0 0 0 0 0 0 0 0 0 0 0 0 0 0 0 0 0 0 0 0 0 0 0 0 0 0 0 0 0 0 0 0 0
0 0 0 0 0 0 0 0 0 0 0 0 0 0 0 0 0 0 0 0 0 0 0 0 0 0 0 0 0 0 0 0 0 0 0 0 0 0 0 0 0 0 0
0 0 0 0 0 0 0 0 0 0 0 0 0 0 0 0 0 0 0 0 0 0 0 0 0 0 0 0 0 0 0 0 0 0 0 0 0 0 0 0 0 0 0
0 0 0 0 0 0 0 0 0 0 0 0 0 0 0 0 0 0 0 0 0 0 0 0 0 0 0 0 0 0 0 0 0 0 0 0 0 0 0 0 0 0 0
0 0 0 0 0 0 0 0 0 0 0 0 0 0 0 0 0 0 0 0 0 0 0 0 0 0 0 0 0 0 0 0 0 -0 -0 0 0 0 0 0 0 0 0
0 0 0 0 0 0 0 0 0 0 0 0 0 0 0 0 0 0 0 0 0 0 0 0 0 0 0 0 0 0 -0 -0 -0 -0 0 0 0 0 -0 0 0 0 0
0 0 0 0 0 0 0 0 0 0 0 0 0 0 0 0 0 0 0 0 0 0 0 0 0 0 0 0 0 0 0 -0 0 -0 -0 0 0 0 0 0 0 0 0
0 0 0 0 0 0 0 0 0 0 0 0 0 0 0 0 0 0 0 0 0 0 0 0 0 0 0 0 0 0 0 0 0 0 0 0 0 0 0 0 0 0 0
0 0 0 0 0 0 0 0 0 0 0 0 0 0 0 0 0 0 0 0 0 0 0 0 0 0 0 0 0 0 0 -0 -0 0 -0 -0 -0 0 0 0 0 0 0
0 0 0 0 0 0 0 0 0 0 0 0 0 0 0 0 0 0 0 0 0 0 0 0 0 0 0 0 0 0 0 0 -0 -0 -0 0 0 0 0 -0 -0 0 0
0 0 0 0 0 0 0 0 0 0 0 0 0 0 0 0 0 0 0 0 0 0 0 0 0 0 0 0 0 0 0 -0 -0 0 0 0 0 0 -0 -0 0 0 -0
0 0 0 0 0 0 0 0 0 0 0 0 0 0 0 0 0 0 0 0 0 0 0 0 0 0 0 0 0 0 0 0 0 0 0 0 0 0 0 0 0 -0 -0
0 0 0 0 0 0 0 0 0 0 0 0 0 0 0 0 0 0 0 0 0 0 0 0 0 0 0 0 0 0 0 0 0 0 -0 0 0 0 0 0 0 -0 0
0 0 0 0 0 0 0 0 0 0 0 0 0 0 0 0 0 0 0 0 0 0 0 0 0 0 0 0 0 0 0 0 0 0 0 0 0 0 0 -0 -0 0 0
0 0 0 0 0 0 0 0 0 0 0 0 0 0 0 0 0 0 0 0 0 0 0 0 0 0 0 0 0 0 0 0 0 0 0 0 0 0 0 -0 0 0 0
Wind_Speed_500mb
53 49 45 42 37 31 27 22 17 13 11 12 14 16 16 17 17 18 18 16 15 17 19 20 21 19 18 14 12 4 4 10 1 22 21 19 17 22 28 39 38 37 38
60 57 53 49 44 39 34 28 23 17 12 12 15 16 18 18 18 19 19 18 16 15 17 18 18 13 7 10 15 16 18 12 10 20 22 23 21 19 23 29 36 41 41
68 65 60 56 50 44 39 34 27 21 16 14 15 17 18 18 19 18 18 15 13 13 14 14 17 18 20 17 15 2 15 10 18 17 9 20 21 22 26 32 32 33 41
74 72 68 62 57 52 47 41 35 28 22 18 16 15 17 19 20 16 13 13 14 14 13 13 12 12 13 10 7 14 13 16 15 6 8 20 20 18 20 23 27 34 35
80 78 73 67 64 61 55 49 43 35 26 21 17 14 17 19 19 18 15 14 14 14 13 15 16 15 11 10 10 11 14 16 17 20 22 24 25 25 26 27 32 36 35
87 83 79 75 73 69 63 57 49 40 32 27 21 16 15 16 17 18 18 17 17 16 16 16 15 12 11 13 16 19 20 22 24 25 27 28 29 31 32 34 35 37 37
92 89 86 84 80 76 68 60 54 49 43 35 26 17 13 14 15 17 17 17 16 13 12 13 15 16 15 14 15 17 18 19 21 21 21 23 24 27 31 34 35 37 39
97 96 94 89 84 81 74 70 63 58 52 43 31 21 13 16 21 22 23 21 17 13 9 13 14 13 13 13 15 17 13 12 12 13 15 18 22 26 31 35 38 39 40
102 99 95 91 88 85 82 75 70 65 58 50 41 27 14 16 23 31 34 31 27 18 13 14 15 14 13 14 14 11 5 6 11 14 17 19 22 24 29 33 37 40 42
106 103 101 98 94 90 86 80 74 69 65 60 49 42 36 26 21 18 34 34 35 28 19 16 16 15 15 15 13 11 8 12 15 18 21 24 27 30 33 37 40 40 42
108 106 103 101 98 93 87 83 80 78 73 65 59 51 43 37 36 32 21 30 35 33 25 20 17 14 14 12 16 9 13 15 19 24 27 30 32 33 36 39 42 44 45
107 106 105 102 98 94 93 88 84 80 75 69 63 58 52 46 40 38 37 29 30 29 29 25 20 14 13 11 8 12 17 20 23 27 31 34 36 38 40 42 43 44 45
99 104 105 105 102 98 95 91 90 86 82 78 72 67 58 51 44 37 36 34 32 29 29 27 24 17 17 11 11 15 18 24 28 31 35 40 44 46 45 47 49 51 53
81 90 98 103 102 99 97 92 90 88 86 83 78 71 63 58 52 44 39 37 34 34 31 29 30 22 16 13 18 20 23 26 30 32 35 39 43 46 48 48 49 50 52
77 78 85 96 99 99 100 97 96 94 90 86 82 76 72 67 60 52 47 42 40 34 35 35 33 27 19 17 20 21 23 27 32 38 42 43 44 44 44 45 46 48 50
75 78 78 85 95 98 101 101 102 100 97 94 90 84 80 76 69 61 54 47 45 43 35 33 33 24 21 21 22 25 27 30 36 40 43 45 45 42 39 40 42 45 47
74 78 78 82 90 98 102 106 108 106 102 99 96 93 89 83 78 70 62 56 52 48 47 43 35 30 24 21 25 30 32 34 35 38 41 41 42 44 45 48 51 52 54
71 80 83 85 90 95 100 107 114 113 110 108 103 100 98 91 85 77 69 62 55 49 47 43 41 37 30 28 31 34 36 37 37 41 43 41 40 43 45 48 49 53 57
68 72 83 91 96 93 99 107 112 115 115 111 107 107 104 100 93 86 78 68 60 54 49 48 48 44 41 36 36 38 39 40 34 36 38 35 36 37 41 46 52 58 58
63 68 77 84 98 95 100 107 111 120 116 115 114 111 111 106 100 92 84 74 65 62 56 56 55 51 45 41 37 37 36 40 31 38 41 35 43 45 46 48 48 52 56
64 68 70 82 92 95 102 108 110 118 119 121 121 119 117 110 101 93 87 82 76 71 67 63 62 54 50 45 36 33 31 33 26 33 36 43 49 51 53 54 55 58 58
72 68 73 76 87 97 102 106 106 114 122 121 126 126 122 115 108 100 94 86 78 77 73 69 65 60 52 47 37 28 28 29 24 28 48 44 50 52 58 63 64 65 66
66 69 70 71 77 92 98 105 105 109 119 119 124 128 128 121 113 107 101 92 86 81 75 66 66 61 53 45 35 27 28 29 33 32 50 60 52 54 58 61 63 63 67
68 65 64 72 69 83 90 95 101 109 115 114 117 124 129 127 120 116 106 100 94 88 83 76 70 61 51 43 35 31 30 32 34 33 41 60 56 65 68 65 63 60 71
70 71 66 65 69 77 79 76 94 105 113 115 116 120 125 126 122 118 110 103 95 89 81 76 69 61 50 41 39 32 27 30 35 34 37 48 60 75 79 75 66 70 74
86 72 69 66 64 69 69 70 76 90 105 114 118 116 121 123 121 119 112 106 99 90 83 78 70 58 54 42 35 31 28 28 29 25 27 48 55 63 67 76 78 85 89
Wind_Direction_500mb
228 226 223 223 222 223 224 226 233 248 273 301 317 322 320 321 321 319 312 304 290 275 269 262 254 251 253 255 241 128 117 87 134 262 264 270 270 263 254 248 246 248 250
230 228 226 225 225 225 224 225 228 237 261 295 310 316 316 316 317 318 313 308 301 280 262 260 256 242 123 174 234 228 239 250 248 259 268 269 264 256 260 260 255 251 251
230 229 228 227 226 226 225 227 230 238 252 277 293 303 305 307 307 307 300 292 280 273 265 246 225 222 219 211 236 49 79 157 256 264 275 271 269 279 273 281 280 269 263
231 230 228 226 227 227 226 225 226 229 235 252 272 288 296 299 298 290 276 263 254 250 245 247 246 230 231 245 228 164 213 256 286 336 246 284 294 289 277 288 288 287 281
232 230 229 227 228 227 226 225 225 224 231 245 258 277 291 295 290 278 260 243 236 233 232 242 251 254 249 246 259 273 280 287 289 297 304 310 309 304 301 292 293 293 294
232 230 228 227 228 227 225 225 224 224 227 231 242 258 273 277 267 253 244 238 239 247 254 256 259 264 273 283 287 287 289 291 296 297 296 295 295 293 294 296 297 297 301
231 230 229 228 227 228 229 227 224 223 223 224 227 231 245 251 240 224 219 213 209 207 219 237 250 258 259 262 260 258 259 268 276 282 284 284 284 287 286 286 288 288 291
229 229 229 229 229 229 226 224 224 223 221 221 220 219 225 233 225 224 212 205 208 214 241 260 259 255 249 233 220 239 249 258 279 295 303 305 304 299 297 296 294 292 288
228 229 230 231 232 231 230 228 226 225 225 225 222 216 194 217 212 222 221 224 224 222 261 262 262 249 232 221 226 209 212 293 301 304 304 304 304 305 302 301 299 296 293
229 228 228 229 230 231 230 230 229 227 227 227 223 224 232 234 199 213 227 228 222 237 256 258 243 229 220 217 201 195 303 305 313 321 324 321 320 318 312 307 303 301 297
230 230 230 229 229 229 230 230 228 225 226 227 229 232 231 233 232 231 224 226 226 228 244 245 235 220 194 205 186 264 305 322 332 339 336 332 326 322 319 316 312 309 306
230 231 232 232 231 231 229 228 228 228 228 229 231 235 239 237 237 231 229 226 216 225 231 232 217 209 194 181 239 311 333 333 339 340 337 333 331 327 324 321 318 315 311
231 233 232 231 232 232 231 228 227 227 227 228 231 233 236 238 242 240 237 234 226 222 222 223 217 221 213 230 287 316 328 333 337 338 336 337 336 332 329 327 325 323 321
242 238 236 233 233 232 231 229 230 230 228 229 228 230 234 238 240 242 243 238 229 226 224 223 225 232 226 281 303 315 330 331 332 332 334 333 332 331 330 328 325 324 322
253 248 241 238 236 233 231 229 229 230 230 231 230 230 233 236 237 239 240 238 235 230 223 222 223 222 239 279 295 307 315 320 325 330 330 329 329 330 331 330 329 329 326
258 255 249 243 240 236 233 230 230 229 228 229 230 230 232 234 234 234 236 236 235 234 231 228 227 229 259 285 298 309 314 321 327 328 325 323 322 321 326 331 331 327 326
261 257 254 250 244 237 235 233 231 230 228 228 229 231 232 232 233 233 232 232 232 229 231 234 239 251 266 279 290 301 307 312 320 323 320 323 324 328 335 332 329 329 331
267 262 257 254 249 244 238 236 234 232 229 227 228 229 231 230 229 230 232 233 231 230 231 234 242 246 252 262 272 282 296 306 316 316 314 315 318 319 323 317 323 327 329
278 269 262 255 252 248 244 239 237 237 234 232 231 231 231 230 230 230 230 230 233 232 235 238 239 242 247 252 263 273 282 288 301 300 302 306 307 315 323 325 325 325 327
285 276 266 262 256 252 248 244 238 236 234 235 234 233 233 232 232 231 231 233 232 231 233 233 236 240 243 248 258 270 280 293 311 312 309 322 330 335 336 327 328 328 324
291 285 277 266 258 253 248 246 243 241 237 234 234 233 233 233 233 234 232 231 230 232 231 229 231 235 241 247 253 265 277 292 312 308 310 333 326 332 332 330 337 335 330
308 288 278 273 267 258 252 248 244 244 243 238 237 235 234 232 230 230 230 229 234 236 231 229 229 234 239 245 250 261 279 292 309 305 309 323 325 335 331 333 338 338 334
318 309 285 275 269 266 259 253 248 244 243 242 241 238 235 233 230 228 227 228 230 231 232 237 234 235 235 242 246 256 272 285 299 318 318 318 329 327 326 331 334 337 336
309 311 306 286 275 271 266 261 255 248 244 244 244 243 239 236 230 227 225 226 228 228 229 230 231 234 233 235 242 255 271 287 304 318 319 313 328 323 325 328 331 337 334
303 303 306 302 287 274 268 264 259 250 247 242 239 241 239 238 233 229 225 226 227 226 226 228 226 228 231 231 241 253 271 286 298 318 323 319 327 324 321 324 327 333 329
300 295 295 297 292 282 271 263 251 239 245 240 237 238 239 238 233 227 227 225 224 225 224 222 223 225 227 228 237 247 258 276 294 320 323 319 324 328 323 321 319 322 326
Wind_Speed_850mb
53 49 45 42 37 31 27 22 17 13 11 12 14 16 16 17 17 18 18 16 15 17 19 20 21 19 18 14 12 4 4 10 1 22 21 19 17 22 28 39 38 37 38
60 57 53 49 44 39 34 28 23 17 12 12 15 16 18 18 18 19 19 18 16 15 17 18 18 13 7 10 15 16 18 12 10 20 22 23 21 19 23 29 36 41 41
68 65 60 56 50 44 39 34 27 21 16 14 15 17 18 18 19 18 18 15 13 13 14 14 17 18 20 17 15 2 15 10 18 17 9 20 21 22 26 32 32 33 41
74 72 68 62 57 52 47 41 35 28 22 18 16 15 17 19 20 16 13 13 14 14 13 13 12 12 13 10 7 14 13 16 15 6 8 20 20 18 20 23 27 34 35
80 78 73 67 64 61 55 49 43 35 26 21 17 14 17 19 19 18 15 14 14 14 13 15 16 15 11 10 10 11 14 16 17 20 22 24 25 25 26 27 32 36 35
87 83 79 75 73 69 63 57 49 40 32 27 21 16 15 16 17 18 18 17 17 16 16 16 15 12 11 13 16 19 20 22 24 25 27 28 29 31 32 34 35 37 37
92 89 86 84 80 76 68 60 54 49 43 35 26 17 13 14 15 17 17 17 16 13 12 13 15 16 15 14 15 17 18 19 21 21 21 23 24 27 31 34 35 37 39
97 96 94 89 84 81 74 70 63 58 52 43 31 21 13 16 21 22 23 21 17 13 9 13 14 13 13 13 15 17 13 12 12 13 15 18 22 26 31 35 38 39 40
102 99 95 91 88 85 82 75 70 65 58 50 41 27 14 16 23 31 34 31 27 18 13 14 15 14 13 14 14 11 5 6 11 14 17 19 22 24 29 33 37 40 42
106 103 101 98 94 90 86 80 74 69 65 60 49 42 36 26 21 18 34 34 35 28 19 16 16 15 15 15 13 11 8 12 15 18 21 24 27 30 33 37 40 40 42
108 106 103 101 98 93 87 83 80 78 73 65 59 51 43 37 36 32 21 30 35 33 25 20 17 14 14 12 16 9 13 15 19 24 27 30 32 33 36 39 42 44 45
107 106 105 102 98 94 93 88 84 80 75 69 63 58 52 46 40 38 37 29 30 29 29 25 20 14 13 11 8 12 17 20 23 27 31 34 36 38 40 42 43 44 45
99 104 105 105 102 98 95 91 90 86 82 78 72 67 58 51 44 37 36 34 32 29 29 27 24 17 17 11 11 15 18 24 28 31 35 40 44 46 45 47 49 51 53
81 90 98 103 102 99 97 92 90 88 86 83 78 71 63 58 52 44 39 37 34 34 31 29 30 22 16 13 18 20 23 26 30 32 35 39 43 46 48 48 49 50 52
77 78 85 96 99 99 100 97 96 94 90 86 82 76 72 67 60 52 47 42 40 34 35 35 33 27 19 17 20 21 23 27 32 38 42 43 44 44 44 45 46 48 50
75 78 78 85 95 98 101 101 102 100 97 94 90 84 80 76 69 61 54 47 45 43 35 33 33 24 21 21 22 25 27 30 36 40 43 45 45 42 39 40 42 45 47
74 78 78 82 90 98 102 106 108 106 102 99 96 93 89 83 78 70 62 56 52 48 47 43 35 30 24 21 25 30 32 34 35 38 41 41 42 44 45 48 51 52 54
71 80 83 85 90 95 100 107 114 113 110 108 103 100 98 91 85 77 69 62 55 49 47 43 41 37 30 28 31 34 36 37 37 41 43 41 40 43 45 48 49 53 57
68 72 83 91 96 93 99 107 112 115 115 111 107 107 104 100 93 86 78 68 60 54 49 48 48 44 41 36 36 38 39 40 34 36 38 35 36 37 41 46 52 58 58
63 68 77 84 98 95 100 107 111 120 116 115 114 111 111 106 100 92 84 74 65 62 56 56 55 51 45 41 37 37 36 40 31 38 41 35 43 45 46 48 48 52 56
64 68 70 82 92 95 102 108 110 118 119 121 121 119 117 110 101 93 87 82 76 71 67 63 62 54 50 45 36 33 31 33 26 33 36 43 49 51 53 54 55 58 58
72 68 73 76 87 97 102 106 106 114 122 121 126 126 122 115 108 100 94 86 78 77 73 69 65 60 52 47 37 28 28 29 24 28 48 44 50 52 58 63 64 65 66
66 69 70 71 77 92 98 105 105 109 119 119 124 128 128 121 113 107 101 92 86 81 75 66 66 61 53 45 35 27 28 29 33 32 50 60 52 54 58 61 63 63 67
68 65 64 72 69 83 90 95 101 109 115 114 117 124 129 127 120 116 106 100 94 88 83 76 70 61 51 43 35 31 30 32 34 33 41 60 56 65 68 65 63 60 71
70 71 66 65 69 77 79 76 94 105 113 115 116 120 125 126 122 118 110 103 95 89 81 76 69 61 50 41 39 32 27 30 35 34 37 48 60 75 79 75 66 70 74
86 72 69 66 64 69 69 70 76 90 105 114 118 116 121 123 121 119 112 106 99 90 83 78 70 58 54 42 35 31 28 28 29 25 27 48 55 63 67 76 78 85 89
Wind_Direction_850mb
228 226 223 223 222 223 224 226 233 248 273 301 317 322 320 321 321 319 312 304 290 275 269 262 254 251 253 255 241 128 117 87 134 262 264 270 270 263 254 248 246 248 250
230 228 226 225 225 225 224 225 228 237 261 295 310 316 316 316 317 318 313 308 301 280 262 260 256 242 123 174 234 228 239 250 248 259 268 269 264 256 260 260 255 251 251
230 229 228 227 226 226 225 227 230 238 252 277 293 303 305 307 307 307 300 292 280 273 265 246 225 222 219 211 236 49 79 157 256 264 275 271 269 279 273 281 280 269 263
231 230 228 226 227 227 226 225 226 229 235 252 272 288 296 299 298 290 276 263 254 250 245 247 246 230 231 245 228 164 213 256 286 336 246 284 294 289 277 288 288 287 281
232 230 229 227 228 227 226 225 225 224 231 245 258 277 291 295 290 278 260 243 236 233 232 242 251 254 249 246 259 273 280 287 289 297 304 310 309 304 301 292 293 293 294
232 230 228 227 228 227 225 225 224 224 227 231 242 258 273 277 267 253 244 238 239 247 254 256 259 264 273 283 287 287 289 291 296 297 296 295 295 293 294 296 297 297 301
231 230 229 228 227 228 229 227 224 223 223 224 227 231 245 251 240 224 219 213 209 207 219 237 250 258 259 262 260 258 259 268 276 282 284 284 284 287 286 286 288 288 291
229 229 229 229 229 229 226 224 224 223 221 221 220 219 225 233 225 224 212 205 208 214 241 260 259 255 249 233 220 239 249 258 279 295 303 305 304 299 297 296 294 292 288
228 229 230 231 232 231 230 228 226 225 225 225 222 216 194 217 212 222 221 224 224 222 261 262 262 249 232 221 226 209 212 293 301 304 304 304 304 305 302 301 299 296 293
229 228 228 229 230 231 230 230 229 227 227 227 223 224 232 234 199 213 227 228 222 237 256 258 243 229 220 217 201 195 303 305 313 321 324 321 320 318 312 307 303 301 297
230 230 230 229 229 229 230 230 228 225 226 227 229 232 231 233 232 231 224 226 226 228 244 245 235 220 194 205 186 264 305 322 332 339 336 332 326 322 319 316 312 309 306
230 231 232 232 231 231 229 228 228 228 228 229 231 235 239 237 237 231 229 226 216 225 231 232 217 209 194 181 239 311 333 333 339 340 337 333 331 327 324 321 318 315 311
231 233 232 231 232 232 231 228 227 227 227 228 231 233 236 238 242 240 237 234 226 222 222 223 217 221 213 230 287 316 328 333 337 338 336 337 336 332 329 327 325 323 321
242 238 236 233 233 232 231 229 230 230 228 229 228 230 234 238 240 242 243 238 229 226 224 223 225 232 226 281 303 315 330 331 332 332 334 333 332 331 330 328 325 324 322
253 248 241 238 236 233 231 229 229 230 230 231 230 230 233 236 237 239 240 238 235 230 223 222 223 222 239 279 295 307 315 320 325 330 330 329 329 330 331 330 329 329 326
258 255 249 243 240 236 233 230 230 229 228 229 230 230 232 234 234 234 236 236 235 234 231 228 227 229 259 285 298 309 314 321 327 328 325 323 322 321 326 331 331 327 326
261 257 254 250 244 237 235 233 231 230 228 228 229 231 232 232 233 233 232 232 232 229 231 234 239 251 266 279 290 301 307 312 320 323 320 323 324 328 335 332 329 329 331
267 262 257 254 249 244 238 236 234 232 229 227 228 229 231 230 229 230 232 233 231 230 231 234 242 246 252 262 272 282 296 306 316 316 314 315 318 319 323 317 323 327 329
278 269 262 255 252 248 244 239 237 237 234 232 231 231 231 230 230 230 230 230 233 232 235 238 239 242 247 252 263 273 282 288 301 300 302 306 307 315 323 325 325 325 327
285 276 266 262 256 252 248 244 238 236 234 235 234 233 233 232 232 231 231 233 232 231 233 233 236 240 243 248 258 270 280 293 311 312 309 322 330 335 336 327 328 328 324
291 285 277 266 258 253 248 246 243 241 237 234 234 233 233 233 233 234 232 231 230 232 231 229 231 235 241 247 253 265 277 292 312 308 310 333 326 332 332 330 337 335 330
308 288 278 273 267 258 252 248 244 244 243 238 237 235 234 232 230 230 230 229 234 236 231 229 229 234 239 245 250 261 279 292 309 305 309 323 325 335 331 333 338 338 334
318 309 285 275 269 266 259 253 248 244 243 242 241 238 235 233 230 228 227 228 230 231 232 237 234 235 235 242 246 256 272 285 299 318 318 318 329 327 326 331 334 337 336
309 311 306 286 275 271 266 261 255 248 244 244 244 243 239 236 230 227 225 226 228 228 229 230 231 234 233 235 242 255 271 287 304 318 319 313 328 323 325 328 331 337 334
303 303 306 302 287 274 268 264 259 250 247 242 239 241 239 238 233 229 225 226 227 226 226 228 226 228 231 231 241 253 271 286 298 318 323 319 327 324 321 324 327 333 329
300 295 295 297 292 282 271 263 251 239 245 240 237 238 239 238 233 227 227 225 224 225 224 222 223 225 227 228 237 247 258 276 294 320 323 319 324 328 323 321 319 322 326